{"data":{"norad_id":64107,"intl_designator":"2025-110M","name":"STARLINK-33912","alt_names":[],"object_type":"PAYLOAD","status":"ACTIVE","operator":null,"country":"US","launch_date":"2025-05-23","launch_site_code":"AFWTR","launch_vehicle":null,"mission":null,"orbit_class":"UNKNOWN","rcs_meters":null,"size_class":null,"mass_kg":null,"dimensions":null,"purposes":["comms"],"wikipedia_slug":null,"has_3d_model":false,"image_url":null,"decayed_at":null,"tle_current":{"epoch":"2026-05-24T23:14:57.310368Z","epoch_age_seconds":88487,"freshness":"FRESH","line1":"1 64107U 25110M   26144.96871887  .00017573  00000+0  57657-3 0  9993","line2":"2 64107  53.1599  32.2785 0001164  81.0167 279.0966 15.31708230 57566","mean_motion":15.3170823,"eccentricity":0.0001164,"inclination_deg":53.1599,"raan_deg":32.2785,"arg_perigee_deg":81.0167,"mean_anomaly_deg":279.0966,"bstar":0.00057657,"rev_number":5756,"period_min":94.012682820148,"perigee_km":469.91825570716,"apogee_km":471.51266856034,"semimajor_km":6848.8524621338,"source":"CELESTRAK","updated_at":"2026-05-25T13:38:20.266133Z"}}}